Regional Weather Roundup
Issued by NWS Albany, NY

Current Version | Previous Version | Graphics & Text | Print | Product List | Glossary Off
Versions: 1 2 3 4 5 6 7 8 9 10 11 12 13 14 15 16 17 18 19 20 21 22 23 24 25 26 27 28 29 30 31 32 33 34 35 36 37 38 39 40 41 42 43 44 45 46 47 48

000
ASUS41 KALY 040010
RWRALY

NEW YORK STATE HOURLY WEATHER ROUNDUP
NATIONAL WEATHER SERVICE ALBANY NY
800 PM EDT THU SEP 03 2015

NOTE: "FAIR" INDICATES FEW OR NO CLOUDS BELOW 12,000 FEET WITH NO
SIGNIFICANT WEATHER AND/OR NO OBSTRUCTIONS TO VISIBILITY.

NYZ032-033-038>043-046>054-057>066-NYZ062>081-040100-
EAST


CITY           SKY/WX    TMP DP  RH WIND       PRES   REMARKS
ALBANY         MOCLDY    74  70  87 N6        29.90R
GLENS FALLS    PTCLDY    75  64  68 N3        29.91R
POUGHKEEPSIE   MOCLDY    82  68  62 N7        29.85R
NEWBURGH       PTCLDY    81  66  61 VRB5      29.88R
MONTGOMERY     MOCLDY    80  65  59 N3        29.87R
WHITE PLAINS   LGT RAIN  78  65  63 CALM      29.86R
ISLIP          MOCLDY    78  70  76 SW3       29.83S
NEW YORK CITY  MOCLDY    86  64  47 S9        29.83R
CENTRAL PARK   PTCLDY    85  63  47 S5        29.87R
$$

NYZ005>009-017-018-044>046-055-056-040100-
CENTRAL


CITY           SKY/WX    TMP DP  RH WIND       PRES   REMARKS
FULTON         PTCLDY    73  69  87 NW5       29.95R
SYRACUSE       PTCLDY    77  71  82 NW7       29.93R
ROME           PTCLDY    75  69  81 NW6       29.94R
ELMIRA         PTCLDY    79  70  74 NE7       29.94R
BINGHAMTON     PTCLDY    75  67  76 N7        29.97R
MONTICELLO     PTCLDY    73  66  78 N5        29.95R
$$

NYZ026>034-041>043-040100-
NORTH


CITY           SKY/WX    TMP DP  RH WIND       PRES   REMARKS
WATERTOWN      CLEAR     70  65  84 CALM      29.94R
FORT DRUM      NOT AVBL
MASSENA        CLEAR     70  66  87 CALM      29.96R
SARANAC LAKE   CLEAR     66  58  75 CALM      29.99S
PLATTSBURGH    LGT RAIN  69  62  78 CALM      29.95R
$$

NYZ001>004-010>016-019>021-040100-
WEST


CITY           SKY/WX    TMP DP  RH WIND       PRES   REMARKS
NIAGARA FALLS  MOCLDY    77  69  76 N6        29.94R
BUFFALO        PTCLDY    78  70  76 NE7       29.94F
DUNKIRK        MOCLDY    75  72  90 W3        29.96R FOG
JAMESTOWN      MOCLDY    73  68  83 N7        30.00R
WELLSVILLE     CLEAR     76  65  68 CALM      30.03R
ROCHESTER      MOCLDY    76  68  76 NE6       29.96R
PENN YAN       CLEAR     76  69  79 CALM      29.97R
$$

             KEY
       WCI = WIND CHILL INDEX
       VSB = VISIBILITY
       HX  = HEAT INDEX
$$



USA.gov is the U.S. government's official web portal to all federal, state and local government web resources and services.